Temp
-7 -7 -7 -7 -7 -7 -7 -6 -6 -7 -7 -7 -7 -8 -8 -8 -9 -10 -12 -13 -14 -14 -14 -14 -13 -12 -11 -10 -11 -10 -10 -8 -8 -8 -8 -10 -9 -7 -8 -8 -8 -9 -8 -6 -7
-7 -7 -7 -7 -7 -7 -7 -7 -7 -7 -8 -8 -8 -9 -9 -10 -12 -13 -13 -14 -14 -14 -14 -14 -14 -14 -13 -12 -11 -11 -10 -9 -9 -9 -9 -9 -10 -7 -8 -8 -9 -9 -8 -6 -7
-7 -7 -7 -7 -8 -7 -7 -7 -8 -8 -8 -9 -9 -10 -10 -12 -13 -13 -14 -14 -14 -14 -14 -14 -14 -14 -14 -13 -12 -11 -11 -11 -10 -10 -11 -11 -10 -7 -8 -8 -8 -9 -8 -7 -7
-8 -8 -8 -8 -8 -8 -8 -8 -8 -9 -9 -10 -10 -11 -12 -13 -14 -14 -14 -14 -14 -14 -14 -14 -14 -14 -14 -14 -13 -13 -12 -12 -11 -11 -11 -10 -9 -9 -8 -8 -9 -9 -10 -8 -7
-8 -8 -8 -8 -8 -8 -8 -8 -9 -9 -10 -10 -11 -12 -13 -14 -14 -14 -14 -14 -14 -14 -14 -14 -15 -15 -15 -15 -14 -13 -13 -13 -12 -11 -10 -10 -9 -9 -8 -9 -9 -9 -9 -7 -7
-8 -8 -8 -9 -9 -9 -9 -9 -10 -10 -10 -11 -12 -13 -13 -14 -14 -14 -14 -14 -14 -14 -14 -15 -15 -15 -16 -16 -15 -14 -14 -13 -13 -12 -11 -10 -10 -10 -9 -9 -9 -8 -9 -8 -8
-9 -9 -9 -9 -9 -9 -9 -9 -10 -10 -11 -11 -12 -13 -13 -14 -14 -14 -15 -15 -15 -15 -15 -15 -15 -15 -16 -16 -16 -15 -15 -14 -13 -13 -12 -11 -11 -9 -9 -10 -9 -8 -9 -9 -8
-9 -9 -9 -9 -9 -9 -9 -10 -10 -11 -11 -12 -13 -13 -14 -14 -14 -15 -15 -15 -15 -15 -16 -16 -16 -16 -16 -17 -16 -17 -16 -15 -14 -13 -12 -12 -10 -10 -11 -10 -10 -9 -9 -9 -8
-9 -9 -9 -9 -9 -10 -10 -10 -11 -11 -12 -12 -13 -14 -14 -15 -15 -15 -15 -15 -16 -16 -16 -16 -16 -17 -17 -17 -17 -17 -17 -17 -16 -14 -13 -12 -10 -11 -11 -11 -10 -9 -9 -9 -9
-9 -9 -9 -10 -10 -10 -10 -11 -11 -12 -12 -13 -13 -14 -14 -15 -15 -15 -15 -16 -16 -16 -16 -17 -18 -18 -18 -18 -19 -18 -19 -19 -18 -17 -14 -12 -11 -12 -11 -11 -10 -9 -9 -9 -9
-10 -10 -10 -10 -10 -11 -11 -11 -11 -11 -12 -13 -14 -15 -16 -16 -16 -15 -16 -16 -16 -16 -18 -19 -20 -20 -20 -19 -20 -18 -18 -19 -18 -18 -15 -13 -12 -12 -11 -11 -10 -10 -9 -9 -9
-10 -10 -10 -10 -11 -11 -11 -12 -12 -12 -13 -13 -14 -15 -16 -16 -16 -16 -16 -16 -16 -17 -19 -19 -19 -20 -20 -19 -19 -19 -19 -20 -18 -18 -18 -16 -13 -12 -12 -11 -10 -10 -9 -9 -9
-10 -10 -10 -10 -11 -11 -12 -12 -12 -12 -13 -13 -15 -15 -16 -16 -16 -17 -17 -17 -17 -17 -19 -19 -20 -20 -20 -20 -20 -19 -18 -20 -19 -18 -16 -15 -13 -12 -12 -11 -11 -11 -10 -9 -9
-10 -10 -10 -11 -11 -11 -12 -12 -13 -13 -13 -14 -14 -14 -15 -15 -16 -16 -17 -17 -17 -18 -18 -19 -20 -21 -20 -20 -20 -21 -20 -19 -19 -18 -16 -14 -13 -11 -11 -11 -11 -10 -9 -9 -9
-10 -10 -10 -11 -11 -12 -12 -12 -13 -13 -14 -14 -15 -16 -16 -16 -17 -16 -17 -17 -18 -18 -18 -19 -20 -20 -20 -21 -19 -20 -19 -18 -18 -18 -17 -17 -14 -14 -12 -11 -11 -10 -9 -9 -9
-11 -10 -11 -11 -11 -12 -12 -12 -13 -13 -14 -15 -16 -16 -16 -17 -16 -17 -17 -18 -18 -18 -18 -19 -20 -20 -20 -20 -20 -20 -19 -18 -18 -17 -17 -16 -14 -14 -13 -12 -11 -10 -10 -9 -9
-11 -11 -11 -11 -12 -12 -12 -13 -13 -14 -14 -15 -15 -16 -16 -17 -17 -17 -17 -17 -18 -18 -19 -18 -19 -20 -20 -20 -20 -20 -19 -19 -19 -19 -17 -15 -14 -14 -14 -11 -11 -10 -10 -9 -10
-11 -11 -11 -12 -12 -12 -12 -12 -14 -14 -14 -14 -15 -16 -16 -16 -17 -17 -17 -18 -19 -19 -19 -19 -21 -20 -20 -20 -20 -21 -20 -19 -18 -18 -17 -17 -15 -14 -14 -13 -11 -11 -10 -10 -10
-11 -11 -11 -11 -12 -12 -13 -13 -14 -14 -14 -14 -15 -16 -16 -17 -16 -16 -17 -18 -19 -19 -19 -20 -21 -20 -20 -20 -21 -21 -19 -19 -19 -18 -17 -16 -16 -14 -14 -11 -12 -11 -11 -11 -10
-11 -11 -12 -12 -12 -13 -12 -14 -13 -14 -14 -14 -15 -16 -16 -16 -17 -17 -17 -18 -19 -19 -19 -20 -20 -21 -21 -21 -21 -21 -21 -20 -19 -18 -17 -16 -16 -15 -13 -13 -12 -12 -12 -11 -10
-11 -11 -12 -12 -12 -12 -13 -14 -14 -14 -14 -14 -15 -16 -16 -16 -17 -17 -17 -18 -19 -19 -20 -20 -20 -20 -20 -21 -22 -20 -20 -19 -20 -19 -18 -16 -15 -15 -15 -12 -12 -12 -13 -11 -11
-12 -12 -12 -13 -12 -13 -13 -14 -14 -14 -15 -15 -15 -16 -17 -16 -17 -17 -17 -18 -19 -19 -19 -20 -20 -20 -21 -21 -20 -21 -21 -21 -21 -20 -18 -18 -16 -15 -15 -14 -12 -12 -12 -13 -10
-13 -12 -12 -12 -13 -13 -13 -14 -14 -14 -15 -15 -15 -16 -17 -17 -16 -17 -17 -17 -18 -18 -19 -19 -20 -20 -20 -20 -20 -20 -20 -20 -21 -20 -19 -18 -16 -16 -16 -15 -12 -12 -12 -13 -9
-13 -13 -13 -13 -12 -13 -13 -14 -14 -14 -15 -15 -15 -16 -16 -16 -18 -17 -17 -17 -18 -18 -18 -19 -19 -19 -20 -20 -20 -20 -20 -19 -21 -21 -20 -19 -17 -16 -16 -15 -13 -13 -14 -10 -10
-13 -13 -13 -13 -14 -14 -14 -14 -14 -14 -14 -15 -15 -16 -16 -16 -16 -16 -17 -17 -18 -18 -18 -19 -19 -19 -19 -19 -20 -19 -20 -19 -21 -22 -21 -18 -16 -16 -16 -16 -15 -14 -13 -11 -11
-14 -14 -14 -13 -14 -13 -13 -14 -14 -14 -14 -15 -15 -16 -16 -16 -17 -17 -17 -17 -18 -18 -18 -17 -18 -18 -19 -18 -19 -19 -19 -19 -21 -22 -21 -18 -18 -16 -16 -15 -15 -14 -13 -12 -11
-14 -14 -14 -14 -14 -14 -14 -14 -14 -14 -14 -14 -15 -15 -16 -16 -16 -17 -17 -17 -17 -18 -17 -17 -18 -18 -18 -18 -18 -18 -19 -20 -22 -21 -19 -18 -17 -16 -16 -16 -15 -12 -12 -11 -11
Height
5847 5842 5838 5833 5827 5821 5815 5809 5803 5797 5791 5786 5780 5774 5769 5762 5755 5748 5745 5744 5744 5744 5745 5746 5748 5749 5755 5760 5765 5771 5774 5779 5793 5803 5812 5820 5822 5826 5836 5840 5848 5847 5857 5845 5863
5843 5839 5834 5828 5822 5816 5809 5802 5796 5790 5784 5777 5771 5764 5757 5749 5743 5741 5739 5738 5738 5738 5738 5738 5740 5741 5743 5746 5750 5755 5760 5773 5787 5794 5802 5810 5812 5816 5825 5832 5837 5838 5845 5843 5860
5840 5834 5829 5823 5817 5811 5804 5797 5790 5783 5776 5770 5763 5755 5747 5740 5736 5736 5733 5731 5730 5730 5730 5730 5730 5732 5734 5736 5739 5743 5748 5763 5771 5780 5786 5794 5800 5805 5815 5822 5829 5836 5837 5846 5853
5836 5831 5825 5818 5812 5806 5799 5791 5783 5776 5769 5762 5754 5746 5738 5733 5730 5728 5726 5724 5722 5721 5721 5721 5721 5722 5724 5726 5727 5727 5737 5744 5754 5762 5770 5777 5786 5793 5807 5817 5820 5829 5832 5837 5844
5833 5827 5821 5814 5807 5801 5794 5785 5777 5770 5763 5754 5746 5738 5731 5727 5723 5720 5718 5716 5715 5714 5714 5713 5712 5712 5713 5714 5716 5720 5725 5727 5739 5747 5753 5763 5775 5785 5795 5803 5808 5812 5822 5827 5840
5829 5824 5817 5810 5803 5795 5788 5779 5771 5764 5756 5746 5738 5731 5726 5722 5717 5714 5712 5710 5709 5708 5706 5705 5704 5702 5702 5703 5706 5708 5708 5708 5721 5733 5744 5755 5765 5772 5785 5794 5798 5806 5816 5826 5835
5825 5820 5813 5806 5799 5790 5782 5774 5766 5758 5749 5740 5732 5726 5720 5717 5712 5709 5706 5704 5702 5700 5698 5698 5696 5694 5693 5693 5695 5699 5696 5698 5707 5721 5732 5745 5750 5766 5779 5785 5790 5801 5811 5819 5827
5822 5816 5809 5802 5794 5786 5777 5769 5761 5752 5743 5734 5726 5720 5715 5710 5707 5703 5700 5697 5695 5693 5690 5687 5686 5685 5684 5684 5686 5687 5686 5684 5695 5704 5719 5730 5747 5760 5763 5772 5782 5792 5801 5811 5820
5818 5812 5805 5798 5790 5781 5773 5763 5754 5745 5736 5728 5721 5714 5710 5706 5702 5697 5693 5690 5687 5684 5681 5678 5674 5673 5673 5675 5677 5677 5678 5676 5684 5694 5711 5723 5737 5744 5752 5766 5773 5782 5793 5803 5812
5814 5808 5801 5794 5786 5777 5769 5759 5751 5741 5731 5722 5715 5710 5705 5699 5695 5691 5687 5684 5681 5677 5672 5665 5659 5659 5662 5665 5671 5677 5675 5673 5679 5686 5698 5714 5721 5732 5745 5756 5764 5777 5787 5796 5805
5811 5804 5797 5790 5782 5773 5764 5756 5744 5736 5728 5718 5710 5703 5697 5693 5690 5686 5682 5678 5673 5669 5661 5654 5651 5652 5658 5657 5661 5665 5669 5672 5678 5682 5690 5700 5708 5722 5735 5746 5756 5767 5776 5786 5796
5807 5800 5794 5786 5778 5768 5759 5750 5741 5732 5723 5715 5706 5699 5693 5688 5685 5681 5677 5672 5667 5662 5655 5650 5646 5646 5649 5652 5653 5657 5661 5666 5670 5676 5677 5687 5696 5711 5725 5736 5750 5762 5771 5782 5790
5803 5797 5790 5783 5775 5768 5758 5749 5738 5729 5721 5713 5702 5694 5689 5684 5681 5677 5672 5667 5663 5657 5652 5647 5645 5643 5643 5645 5647 5651 5655 5662 5666 5668 5671 5679 5689 5699 5718 5730 5742 5753 5765 5775 5785
5800 5793 5787 5779 5772 5762 5753 5744 5734 5725 5716 5705 5699 5693 5687 5680 5676 5673 5667 5664 5658 5654 5649 5646 5643 5641 5639 5640 5642 5648 5652 5653 5656 5660 5669 5678 5688 5700 5713 5722 5735 5747 5757 5768 5780
5797 5790 5783 5776 5768 5760 5752 5741 5732 5724 5715 5707 5696 5689 5683 5679 5674 5668 5664 5658 5655 5650 5646 5643 5641 5639 5637 5636 5638 5642 5643 5647 5652 5657 5661 5671 5680 5698 5708 5713 5727 5740 5753 5763 5773
5794 5787 5780 5774 5766 5757 5748 5738 5731 5720 5712 5703 5693 5686 5680 5674 5669 5663 5658 5655 5649 5644 5641 5639 5636 5635 5636 5633 5635 5637 5641 5645 5650 5655 5659 5668 5680 5690 5694 5708 5725 5737 5749 5760 5769
5791 5784 5777 5771 5763 5755 5745 5737 5726 5718 5711 5701 5693 5684 5676 5671 5664 5658 5653 5649 5644 5640 5636 5634 5632 5630 5629 5631 5632 5636 5639 5645 5650 5653 5658 5667 5675 5690 5700 5709 5722 5734 5745 5755 5764
5788 5781 5774 5768 5760 5751 5742 5735 5725 5716 5707 5699 5689 5681 5673 5667 5661 5655 5649 5643 5638 5635 5632 5630 5629 5625 5626 5627 5631 5635 5637 5644 5647 5655 5661 5665 5667 5683 5690 5700 5716 5728 5739 5749 5757
5785 5779 5772 5764 5757 5749 5741 5730 5724 5714 5705 5695 5687 5677 5670 5661 5657 5651 5645 5639 5635 5632 5629 5627 5625 5623 5620 5620 5625 5630 5632 5640 5637 5645 5652 5663 5669 5681 5685 5696 5708 5720 5727 5739 5749
5783 5776 5769 5762 5754 5747 5737 5728 5720 5712 5702 5692 5683 5674 5667 5661 5655 5649 5641 5635 5629 5626 5623 5623 5622 5619 5616 5615 5617 5624 5629 5634 5638 5647 5655 5661 5667 5675 5679 5688 5700 5712 5722 5734 5743
5777 5771 5765 5758 5751 5743 5734 5725 5719 5710 5700 5690 5680 5672 5664 5658 5653 5648 5639 5632 5625 5622 5619 5618 5618 5619 5616 5613 5617 5621 5625 5631 5637 5643 5651 5660 5668 5675 5681 5688 5698 5708 5718 5727 5736
5775 5768 5760 5754 5747 5737 5730 5723 5716 5707 5697 5686 5677 5668 5661 5654 5651 5644 5638 5628 5623 5618 5617 5615 5614 5614 5615 5614 5615 5618 5623 5627 5631 5638 5643 5648 5659 5677 5678 5683 5693 5705 5715 5724 5739
5771 5764 5760 5752 5744 5737 5728 5720 5712 5704 5694 5684 5674 5666 5660 5653 5646 5641 5636 5630 5623 5617 5614 5612 5612 5611 5611 5614 5613 5614 5616 5617 5625 5631 5637 5644 5655 5666 5673 5680 5689 5703 5711 5721 5737
5766 5761 5754 5745 5738 5732 5725 5718 5708 5701 5692 5683 5673 5665 5656 5650 5646 5640 5634 5628 5622 5617 5612 5610 5611 5609 5608 5609 5608 5608 5609 5611 5615 5621 5630 5636 5646 5655 5664 5678 5684 5697 5705 5719 5726
5760 5755 5750 5745 5739 5731 5723 5715 5708 5699 5689 5681 5673 5662 5655 5650 5644 5638 5633 5627 5622 5617 5613 5610 5607 5604 5603 5602 5601 5600 5600 5600 5603 5609 5618 5630 5637 5641 5650 5658 5683 5693 5697 5709 5722
5755 5750 5746 5740 5734 5727 5718 5711 5704 5696 5688 5680 5671 5663 5655 5648 5641 5636 5631 5626 5621 5617 5613 5609 5607 5601 5598 5597 5596 5592 5588 5587 5592 5601 5610 5622 5627 5635 5646 5653 5667 5677 5689 5704 5716
5749 5744 5739 5735 5728 5722 5715 5708 5701 5694 5685 5676 5668 5660 5653 5647 5641 5635 5629 5625 5621 5617 5614 5609 5603 5598 5597 5595 5591 5589 5584 5583 5583 5590 5601 5609 5621 5627 5638 5650 5665 5674 5689 5704 5713
Wind_Speed
22 25 28 32 37 37 39 41 41 40 39 41 44 43 41 42 43 40 35 24 20 20 19 23 33 44 59 62 62 62 67 68 62 60 56 42 47 56 45 51 46 43 38 54 39
25 28 31 36 38 40 42 44 42 40 41 43 44 42 41 39 33 29 24 22 23 24 26 26 25 30 44 60 65 64 69 67 60 57 57 51 49 56 51 51 52 53 46 52 36
28 30 34 38 40 42 45 46 44 42 42 43 41 40 38 31 27 20 25 26 27 29 30 32 33 31 33 44 57 68 67 64 64 58 54 53 58 61 51 51 56 50 50 42 39
29 32 35 40 42 44 46 47 45 42 42 41 39 37 32 25 27 25 27 30 29 26 24 24 30 34 35 37 47 53 68 66 66 66 64 67 64 60 53 50 52 49 48 48 44
30 33 36 42 44 46 48 47 44 42 41 39 36 33 28 25 28 25 27 27 25 19 20 23 24 30 37 36 43 47 53 68 67 69 75 68 67 62 54 54 55 59 58 56 43
32 34 38 42 45 48 50 47 43 42 41 39 34 30 28 27 25 26 26 23 25 27 29 27 28 28 30 35 36 41 47 61 72 70 72 71 63 64 60 55 58 60 59 50 44
33 36 39 42 45 49 51 47 43 43 41 38 31 28 27 26 24 26 25 27 27 29 30 31 32 30 30 32 34 35 40 55 69 72 71 68 66 64 59 53 59 57 55 52 48
34 37 40 44 47 49 50 47 44 44 42 38 30 27 26 24 25 26 26 28 29 31 36 35 33 34 32 34 35 34 35 49 63 74 71 69 68 60 60 59 55 57 55 56 51
36 38 41 45 47 49 49 48 46 46 44 38 31 27 26 25 26 24 26 27 26 26 31 35 38 36 32 34 33 33 31 35 51 72 66 67 69 64 58 56 58 59 56 58 54
38 39 41 44 47 49 49 47 45 45 44 39 31 29 28 25 25 23 23 24 24 28 34 42 35 31 32 33 27 22 23 24 30 48 66 64 69 61 58 57 57 54 56 57 56
41 39 41 44 47 49 49 48 50 47 44 37 33 29 28 26 22 22 23 22 25 28 33 24 20 27 20 24 27 27 24 16 24 29 53 65 69 66 61 60 59 57 60 60 60
40 39 41 44 47 50 49 49 47 47 45 39 33 32 26 25 23 23 23 24 25 28 27 22 18 15 23 25 28 36 32 23 21 27 43 52 67 67 58 62 59 58 57 57 62
40 38 42 44 47 47 48 47 46 47 44 41 35 31 26 20 20 23 23 24 24 26 26 17 12 16 19 26 28 29 28 19 19 20 44 57 66 69 62 60 61 58 57 59 62
40 38 42 45 47 50 50 49 45 46 47 46 39 31 24 22 22 22 25 23 24 24 26 21 13 12 14 17 23 18 17 29 27 28 32 48 58 65 62 60 61 61 62 60 60
39 39 43 44 47 48 49 48 45 45 42 43 40 31 25 23 24 26 24 25 24 23 24 22 16 18 15 14 17 20 28 24 23 26 34 26 51 43 61 61 60 62 61 60 61
39 39 42 43 47 49 49 47 44 47 43 41 38 35 26 26 28 28 28 23 27 27 24 24 22 15 20 20 17 21 20 21 23 26 32 34 45 41 49 57 54 59 59 58 60
38 38 41 43 46 49 50 45 47 46 45 43 37 32 29 27 29 26 27 29 28 26 20 19 21 16 19 23 22 22 18 12 17 21 29 36 47 35 28 57 51 54 57 58 60
37 39 42 43 46 50 50 45 42 45 46 43 40 32 31 28 27 27 31 34 25 24 19 18 18 22 14 22 23 17 23 17 16 17 21 25 38 46 39 37 51 52 56 58 63
36 40 41 44 46 49 47 44 41 45 46 46 42 35 33 27 25 30 32 28 19 19 17 13 12 16 15 20 23 21 26 20 18 28 22 26 28 45 43 54 57 54 59 60 64
36 40 39 43 46 48 48 42 42 44 46 45 44 38 32 23 25 28 32 30 20 16 17 13 10 9 15 16 20 25 20 25 24 21 22 24 29 34 50 50 62 56 57 60 62
38 40 40 43 45 49 45 40 40 43 45 44 40 35 30 26 24 24 32 28 20 18 20 16 6 8 9 7 13 23 26 28 23 21 21 26 29 28 28 53 58 61 55 61 63
36 36 39 41 46 49 47 40 40 43 43 44 41 36 31 28 24 24 28 30 17 16 21 19 8 10 10 9 10 25 23 23 25 26 34 24 33 22 31 38 55 63 58 54 60
40 35 32 37 42 44 42 40 40 43 43 44 42 36 28 24 27 27 27 26 26 24 14 14 11 10 9 16 14 18 26 34 29 30 31 29 40 20 25 28 55 61 60 56 60
43 36 38 41 44 46 42 38 40 43 44 42 41 35 30 28 23 25 24 27 25 22 11 7 8 9 13 13 19 16 28 32 33 38 36 39 37 29 25 33 47 59 56 56 63
41 39 37 36 38 42 38 36 37 43 45 45 41 36 31 29 23 22 23 25 24 15 10 7 2 3 8 12 15 22 20 23 40 35 46 46 44 40 41 42 34 57 60 59 62
38 35 35 36 35 39 39 38 38 41 44 43 39 34 28 29 24 23 21 19 17 10 17 18 15 12 8 9 14 23 17 19 34 38 43 54 44 36 49 50 49 53 60 61 63
38 36 33 36 36 37 39 38 39 40 42 44 42 38 29 28 22 22 20 19 10 8 13 10 34 20 15 11 16 17 16 15 23 36 53 63 49 23 58 50 55 55 58 59 60
Wind_Direction
345 345 345 344 345 347 345 342 340 337 333 331 329 326 317 309 299 288 286 273 264 259 258 255 245 237 235 235 237 234 233 231 228 228 228 223 233 229 221 218 217 233 224 230 218
347 348 347 347 350 351 348 345 343 340 337 334 331 325 318 309 297 288 276 267 268 270 266 266 260 248 240 234 236 234 234 232 232 230 230 227 229 227 221 220 216 220 219 229 221
351 350 349 351 351 352 351 349 345 342 339 336 331 325 317 304 288 286 280 277 277 277 275 272 266 252 240 240 237 234 235 232 229 227 228 227 227 229 220 219 219 222 228 226 221
353 351 353 351 351 352 353 351 347 343 340 336 331 325 314 298 291 288 284 281 279 277 278 276 267 255 241 238 240 241 232 230 227 223 226 223 222 228 219 220 221 214 221 221 215
352 352 353 352 352 353 355 352 347 343 341 337 332 327 313 298 302 297 291 279 269 262 265 276 282 271 254 241 236 242 239 233 226 224 225 222 221 223 217 217 217 211 215 221 213
351 352 352 353 353 354 355 353 348 345 343 340 333 329 317 304 301 297 291 275 268 261 271 281 276 281 263 247 237 241 243 235 226 222 224 225 221 221 218 215 219 217 214 217 213
350 350 352 353 354 354 355 354 348 347 347 342 333 326 316 305 298 297 292 280 277 271 276 288 277 278 266 254 248 242 259 240 227 223 222 221 224 218 219 217 218 216 213 211 211
350 350 352 353 355 354 355 353 350 348 349 345 334 325 316 302 298 299 300 290 285 280 284 284 278 276 271 254 251 256 263 247 225 222 218 218 218 216 218 216 215 214 211 210 209
349 350 352 353 355 356 356 353 352 351 349 347 338 326 316 306 306 303 303 300 294 292 291 286 278 272 260 251 249 256 265 258 230 222 218 216 216 217 215 216 214 212 209 208 205
349 349 351 354 355 356 356 354 352 352 350 348 340 329 320 315 312 311 314 303 298 303 300 297 278 250 243 244 236 249 269 250 239 218 216 211 215 213 217 210 214 212 208 206 205
350 349 353 354 355 356 354 353 352 355 355 349 341 333 323 316 317 316 318 314 312 309 321 313 296 262 256 240 225 238 209 228 231 221 218 211 213 213 210 211 208 206 207 203 204
349 349 353 353 355 356 355 354 352 355 353 351 345 339 326 319 317 316 316 315 320 315 333 319 320 226 231 220 232 223 228 220 209 203 212 210 214 208 210 210 208 207 206 204 204
349 350 351 353 355 355 355 352 353 353 353 354 350 339 332 322 317 316 316 321 321 318 333 317 289 287 238 242 228 232 228 219 215 224 214 211 211 207 206 206 206 202 205 203 203
349 350 351 352 353 356 355 353 353 354 351 356 352 345 341 332 321 321 323 322 322 319 320 323 292 269 247 254 229 231 246 217 218 208 203 215 215 208 204 208 204 203 202 203 202
348 349 351 352 354 355 354 354 353 354 2 353 345 343 333 331 326 321 317 318 324 315 310 317 305 275 248 237 243 216 225 222 219 209 198 205 211 208 209 209 205 203 203 202 200
346 347 350 352 353 356 355 352 353 357 357 350 349 344 332 325 327 325 321 312 311 316 310 297 302 291 256 233 221 218 227 221 215 213 210 193 205 196 216 206 206 203 202 202 200
345 346 348 352 354 354 354 354 352 357 356 352 350 342 337 326 328 326 326 321 313 314 307 298 302 286 260 246 213 206 213 201 218 216 212 209 206 183 211 201 201 203 202 201 201
344 346 348 349 351 353 355 351 356 353 354 353 349 347 343 335 331 335 328 328 311 314 298 289 296 302 268 248 228 223 208 173 205 220 214 194 218 184 184 193 197 199 203 200 201
345 345 347 347 350 352 348 356 355 353 353 354 352 350 345 334 336 339 337 333 307 307 291 280 275 298 286 244 224 206 205 191 236 193 202 212 209 188 194 198 192 195 202 199 202
342 345 342 346 347 350 353 352 355 355 354 353 351 352 350 353 344 342 338 337 322 312 288 266 275 287 311 242 226 204 212 201 210 198 205 198 215 193 202 194 190 193 201 198 202
338 341 341 345 346 349 352 350 353 355 355 353 351 350 352 351 348 344 341 341 320 314 286 276 225 245 295 288 217 214 219 216 212 205 201 202 206 210 206 205 196 192 198 199 200
333 339 341 341 346 351 351 349 350 353 357 354 351 352 352 346 347 342 345 341 332 330 299 280 227 246 258 289 247 202 220 222 219 220 199 199 190 204 209 214 201 194 197 198 195
332 331 334 341 346 349 349 348 349 354 356 357 352 352 350 347 342 343 344 339 342 339 322 282 278 284 251 242 238 230 228 215 218 205 210 209 178 170 212 197 200 198 197 198 192
333 330 336 338 342 347 349 348 349 353 356 358 354 349 353 352 346 338 345 341 352 356 353 312 312 282 254 257 268 262 238 221 214 218 213 196 174 169 181 193 205 190 200 198 196
332 327 330 339 342 344 346 349 352 352 355 356 356 354 352 353 343 339 349 338 344 10 18 11 312 357 271 261 259 274 250 227 221 216 211 189 193 171 179 180 196 184 200 196 198
327 323 325 329 337 339 347 349 349 352 352 354 355 353 351 353 343 341 354 353 346 33 21 9 350 334 319 313 273 299 271 255 220 210 207 174 203 175 186 182 176 181 199 195 200
322 319 320 323 333 340 343 343 344 349 350 351 354 352 352 352 344 345 1 355 5 4 1 338 352 338 337 292 304 286 277 261 213 206 185 183 192 197 186 182 180 185 193 191 197